Weather History for KRME - July, 2013

Change the Weather History Date:

Tuesday, July 23, 2013

  Actual Average Record
Temperature  
Mean Temperature 74 °F -  
Max Temperature 82 °F 81 °F 95 °F (1987)
Min Temperature 66 °F 58 °F 49 °F (1981)
Cooling Degree Days 9    
Growing Degree Days 24 (Base 50)    
Moisture  
Dew Point 67 °F    
Average Humidity 86    
Maximum Humidity 97    
Minimum Humidity 60    
Precipitation  
Precipitation 0.45 in - - ()
Sea Level Pressure  
Sea Level Pressure 29.67 in    
Wind  
Wind Speed 3 mph (WNW)    
Max Wind Speed 13 mph    
Max Gust Speed -    
Visibility 10 miles    
Events Rain , Thunderstorm    
Averages and records for this station are not official NWS values.
T = Trace of Precipitation, MM = Missing Value Source: NWS Daily Summary

Daily Weather History Graph

Daily Weather History Graph

Search for Another Location

Airport or City:

Trip Planner

Search our weather history database for the weather conditions in past years. The results will help you decide how hot, cold, wet, or windy it might be!

Date:

Astronomy

Jul. 23, 2013 Rise Set
Actual Time 5:42 AM EDT 8:32 PM EDT
Civil Twilight 5:09 AM EDT 9:06 PM EDT
Nautical Twilight 4:27 AM EDT 9:48 PM EDT
Astronomical Twilight 3:37 AM EDT 10:36 PM EDT
Moon 8:54 PM EDT (7/23) 6:52 AM EDT (7/23)
Length of Visible Light 15h 56m
Length of Day
14h 49m
Full, 99% of the Moon is Illuminated
Jul 23
Full
Jul 29
Last Quarter
Aug 6
New
Aug 14
First Quarter
Aug 20
Full

Hourly Weather History & Observations

Time (EDT) Temp. Heat Index Dew Point Humidity Pressure Visibility Wind Dir Wind Speed Gust Speed Precip Events Conditions
1:53 AM 69.1 °F - 66.9 °F 93% 29.78 in 10.0 mi East 4.6 mph - 0.01 in Rain Light Rain
2:53 AM 69.1 °F - 66.9 °F 93% 29.75 in 10.0 mi Calm Calm - 0.05 in Rain Light Rain
3:53 AM 69.1 °F - 66.9 °F 93% 29.73 in 10.0 mi ESE 4.6 mph - 0.07 in Rain Rain
4:53 AM 68.0 °F - 66.0 °F 93% 29.70 in 10.0 mi Calm Calm - 0.05 in Rain Light Rain
5:53 AM 66.9 °F - 66.0 °F 97% 29.71 in 10.0 mi Calm Calm - 0.06 in Rain Rain
6:19 AM 66.9 °F - 66.0 °F 97% 29.72 in 10.0 mi NW 3.5 mph - 0.04 in Rain Light Rain
6:28 AM 66.9 °F - 66.0 °F 97% 29.72 in 10.0 mi NW 4.6 mph - 0.05 in Rain Rain
6:53 AM 66.9 °F - 66.0 °F 97% 29.70 in 10.0 mi NW 3.5 mph - 0.08 in Rain Rain
7:36 AM 66.9 °F - 66.0 °F 97% 29.71 in 10.0 mi Calm Calm - 0.06 in Rain Rain
7:53 AM 66.9 °F - 66.0 °F 97% 29.69 in 10.0 mi Calm Calm - 0.09 in Rain Rain
8:00 AM 66.9 °F - 66.0 °F 97% 29.70 in 10.0 mi WNW 3.5 mph - 0.00 in Rain Rain
8:53 AM 68.0 °F - 66.9 °F 96% 29.68 in 10.0 mi WNW 3.5 mph - 0.03 in Rain Light Rain
9:00 AM 68.0 °F - 66.9 °F 96% 29.69 in 10.0 mi WNW 3.5 mph - 0.00 in Rain Light Rain
9:39 AM 70.0 °F - 68.0 °F 93% 29.69 in 10.0 mi Calm Calm - 0.00 in Rain Light Rain
9:53 AM 71.1 °F - 66.9 °F 87% 29.68 in 10.0 mi Calm Calm - 0.00 in Rain Light Rain
10:03 AM 71.1 °F - 66.9 °F 87% 29.68 in 10.0 mi West 3.5 mph - 0.00 in   Overcast
10:28 AM 71.1 °F - 68.0 °F 90% 29.69 in 10.0 mi WNW 4.6 mph - 0.00 in   Overcast
10:53 AM 72.0 °F - 68.0 °F 87% 29.67 in 10.0 mi WNW 6.9 mph - 0.00 in   Overcast
11:22 AM 71.1 °F - 68.0 °F 90% 29.69 in 10.0 mi WNW 8.1 mph - N/A   Overcast
11:31 AM 71.1 °F - 68.0 °F 90% 29.69 in 10.0 mi West 6.9 mph - N/A   Overcast
11:53 AM 71.1 °F - 68.0 °F 90% 29.68 in 10.0 mi WNW 5.8 mph - N/A   Overcast
12:53 PM 73.0 °F - 66.9 °F 81% 29.66 in 10.0 mi SW 3.5 mph - 0.00 in   Overcast
1:53 PM 78.1 °F - 68.0 °F 71% 29.64 in 10.0 mi WNW 4.6 mph - N/A   Clear
2:53 PM 79.0 °F - 66.9 °F 66% 29.62 in 10.0 mi WSW 4.6 mph - N/A   Mostly Cloudy
3:53 PM 82.0 °F 84.5 °F 66.9 °F 60% 29.60 in 10.0 mi West 6.9 mph - N/A   Clear
4:53 PM 82.0 °F 84.5 °F 66.9 °F 60% 29.60 in 10.0 mi WSW 12.7 mph - N/A   Partly Cloudy
5:53 PM 82.0 °F 84.5 °F 66.9 °F 60% 29.60 in 10.0 mi WNW 10.4 mph - N/A   Clear
6:53 PM 80.1 °F 82.1 °F 66.0 °F 62% 29.60 in 10.0 mi NW 9.2 mph - N/A   Clear
7:53 PM 75.9 °F - 66.9 °F 74% 29.60 in 10.0 mi North 4.6 mph - N/A   Clear
8:53 PM 75.0 °F - 68.0 °F 79% 29.61 in 10.0 mi Calm Calm - 0.01 in   Mostly Cloudy
9:53 PM 70.0 °F - 68.0 °F 93% 29.62 in 10.0 mi Calm Calm - 0.00 in   Clear
10:53 PM 70.0 °F - 68.0 °F 93% 29.62 in 10.0 mi Calm Calm - 0.00 in   Scattered Clouds
11:33 PM 71.1 °F - 66.9 °F 87% 29.64 in 10.0 mi Calm Calm - 0.00 in Thunderstorm Mostly Cloudy
11:53 PM 70.0 °F - 66.9 °F 90% 29.63 in 10.0 mi North 4.6 mph - 0.00 in   Scattered Clouds